Flag for Germany Weather past 2 weeks in Celle, Lower Saxony, Germany

Now
37 °F

Passing clouds.


Feels Like: 27 °F
Forecast: 36 / 44 °F
Wind: 20 mph from West

Location: Celle Airport

Current Time: Mar 3, 2015 at 2:05:06 AM

Latest Report: Mar 3, 2015 at 1:20 AM


Visibility: N/A

Pressure: 29.83 "Hg

Humidity: 87%

Dew point: 34 °F

Location of CelleLocation

Historic Weather in Celle — Graph

°F

Celle temperature yesterday

Maximum temperature yesterday: 46 °F (at 2:20 PM)
Minimum temperature yesterday: 34 °F (at 7:58 PM)
Average temperature yesterday: 41 °F

Past Weeks' High & Low Weather Summary

 TemperatureHumidityPressure
High48 °F (Feb 26, 3:20 PM)100% (Feb 17, 4:20 AM)30.74 "Hg (Feb 17, 4:20 AM)
Low25 °F (Feb 17, 7:20 AM)40% (Feb 28, 4:20 PM)29.30 "Hg (Feb 21, 9:20 AM)
Average38 °F81%29.93 "Hg
* Reported Feb 16 12:20 AM — Mar 3 12:20 AM, Celle, Weather by CustomWeather, © 2015

Note: Actual official high and low records may vary slightly from our data, if they occured in-between our weather recording intervals... More about our weather records

Advertising

Celle weather history for previous 24 hours

 ConditionsComfort  
Time TempWeatherWind HumidityBarometerVisibility
12:20 AM
Tue, Mar 3
36 °FPassing clouds.20 mph87%29.80 "HgN/A
11:20 PM
Mon, Mar 2
36 °FPartly cloudy.17 mph87%29.77 "HgN/A
10:20 PM36 °FPassing clouds.17 mph87%29.74 "HgN/A
9:20 PM36 °FPassing clouds.12 mph93%29.74 "HgN/A
8:20 PM34 °FPartly cloudy.8 mph93%29.71 "Hg5 mi
7:58 PM34 °FSnow showers. Fog.15 mph93%29.71 "Hg1 mi
7:20 PM39 °FRain showers. Passing clouds.14 mph87%29.68 "Hg4 mi
6:20 PM39 °FScattered showers. Partly cloudy.5 mph81%29.65 "HgN/A
5:20 PM39 °FScattered showers. Scattered clouds.10 mph81%29.62 "HgN/A
4:20 PM45 °FSnow flurries. Broken clouds.17 mph53%29.59 "HgN/A
3:20 PM46 °FScattered clouds.14 mph53%29.59 "HgN/A
2:20 PM46 °FScattered showers. Partly sunny.23 mph50%29.56 "HgN/A
1:50 PM45 °FSprinkles. Broken clouds.17 mph57%29.56 "HgN/A
1:20 PM45 °FBroken clouds.20 mph57%29.56 "HgN/A
12:20 PM45 °FBroken clouds.23 mph57%29.53 "HgN/A
11:20 AM43 °FBroken clouds.17 mph61%29.53 "HgN/A
10:20 AM43 °FBroken clouds.22 mph61%29.50 "HgN/A
9:20 AM41 °FBroken clouds.20 mph66%29.47 "HgN/A
8:20 AM41 °FScattered clouds.22 mph66%29.47 "HgN/A
7:20 AM39 °FScattered clouds.17 mph75%29.45 "HgN/A
6:20 AM41 °FPartly cloudy.24 mph70%29.42 "HgN/A
5:20 AM41 °FPassing clouds.24 mph81%29.39 "HgN/A
4:20 AM41 °FPartly cloudy.17 mph87%29.36 "Hg5 mi
3:20 AM43 °FPassing clouds.10 mph87%29.36 "Hg5 mi
2:20 AM41 °FPassing clouds.6 mph87%29.39 "HgN/A
Weather by CustomWeather, © 2015

See weather overviewHow to use our weather pages